This demonstration page uses our WeatherBlox Daily Observations layout. Learn more.

Left ArrowRight Arrow

Hourly Observations for November 27, 2020

Temp ( °F °C ) Dew Point ( °F °C ) Humidity (%) Winds ( mph kmh ) Pressure ( in mb ) Visibility ( mi km ) Precip ( " mm )
12:15 am 00:15 Partly Cloudy 30 -1 28 -2.3 91 91 N N/A 30.27 1025 10 16 N/A
12:35 am 00:35 Partly Cloudy 30 -1.3 28 -2.5 92 92 N N/A 30.27 1025 10 16 N/A
12:55 am 00:55 Clear 29 -1.5 27 -2.6 92 92 N N/A 30.28 1025 10 16 N/A
1:15 am 01:15 Clear 29 -1.6 27 -2.8 92 92 NW 6 9 30.29 1026 10 16 N/A
1:35 am 01:35 Clear 28 -2.5 25 -3.7 92 92 NW 6 9 30.30 1026 10 16 N/A
1:55 am 01:55 Clear 28 -2.3 26 -3.5 92 92 WNW 6 9 30.31 1026 10 16 N/A
2:15 am 02:15 Clear 29 -1.7 27 -3 91 91 WNW 6 9 30.30 1026 10 16 N/A
2:35 am 02:35 Clear 27 -2.6 25 -3.9 91 91 NW 7 11 30.32 1027 10 16 N/A
2:55 am 02:55 Clear 26 -3.1 24 -4.3 92 92 WNW 7 11 30.34 1027 10 16 N/A
3:15 am 03:15 Clear 28 -2.4 26 -3.6 92 92 WNW 6 9 30.32 1027 10 16 N/A
3:35 am 03:35 Clear 28 -2.2 26 -3.6 90 90 WNW 6 9 30.34 1027 10 16 N/A
3:55 am 03:55 Clear 28 -2.5 25 -3.9 90 90 WNW 6 9 30.34 1027 10 16 N/A
4:15 am 04:15 Clear 28 -2.5 25 -3.9 90 90 W 7 11 30.34 1027 10 16 N/A
4:35 am 04:35 Clear 28 -2 26 -3.6 89 89 WNW 7 11 30.33 1027 10 16 N/A
4:55 am 04:55 Clear 27 -2.6 24 -4.2 89 89 WNW 7 11 30.34 1027 10 16 N/A
5:15 am 05:15 Clear 27 -2.7 24 -4.4 88 88 W 6 9 30.34 1027 10 16 N/A
5:35 am 05:35 Clear 27 -2.7 24 -4.3 89 89 WNW 7 11 30.35 1028 10 16 N/A
5:55 am 05:55 Clear 27 -2.7 24 -4.4 88 88 WNW 7 11 30.35 1028 10 16 N/A
6:15 am 06:15 Clear 27 -2.6 24 -4.3 88 88 WNW 6 9 30.35 1028 10 16 N/A
6:35 am 06:35 Clear 27 -2.7 24 -4.5 88 88 WNW 7 11 30.36 1028 10 16 N/A
6:55 am 06:55 Clear 26 -3.5 22 -5.3 88 88 NW 5 7 30.38 1029 10 16 N/A
7:15 am 07:15 Clear 23 -4.8 21 -6.3 89 89 NW 3 6 30.40 1030 10 16 N/A
7:35 am 07:35 Clear 25 -3.8 23 -5 91 91 NW 6 9 30.39 1029 10 16 N/A
7:55 am 07:55 Sunny 26 -3.4 23 -4.8 90 90 NW 5 7 30.39 1029 10 16 N/A
8:15 am 08:15 Sunny 27 -3 24 -4.6 89 89 WNW 5 7 30.39 1029 10 16 N/A
8:35 am 08:35 Sunny 28 -2.5 25 -4.1 89 89 N N/A 30.40 1029 10 16 N/A
8:55 am 08:55 Sunny 30 -1 27 -3 86 86 N N/A 30.39 1029 10 16 N/A
9:15 am 09:15 Sunny 32 -0.2 28 -2.4 85 85 N N/A 30.39 1029 10 16 N/A
9:35 am 09:35 Sunny 34 1.1 31 -0.8 87 87 NW 5 7 30.38 1029 10 16 N/A
9:55 am 09:55 Sunny 36 2.4 32 -0.1 84 84 NW 7 11 30.36 1028 10 16 N/A
10:15 am 10:15 Sunny 39 3.8 33 0.4 79 79 W 3 6 30.35 1028 10 16 N/A
10:35 am 10:35 Sunny 41 4.9 33 0.5 73 73 W 3 6 30.35 1028 10 16 N/A
10:55 am 10:55 Sunny 43 6.3 33 0.6 67 67 W 3 6 30.33 1027 10 16 N/A
11:15 am 11:15 Sunny 45 7.4 32 -0.2 59 59 N N/A 30.32 1027 10 16 N/A
11:35 am 11:35 Sunny 47 8.2 24 -4.6 40 40 W 5 7 30.31 1026 10 16 N/A
11:55 am 11:55 Sunny 48 8.8 26 -3.6 42 42 WSW 7 11 30.29 1026 10 16 N/A
12:15 pm 12:15 Sunny 48 9.1 28 -2.4 45 45 WSW 5 7 30.29 1026 10 16 N/A
12:35 pm 12:35 Sunny 49 9.7 27 -3 41 41 SW 10 17 30.28 1025 10 16 N/A
12:55 pm 12:55 Sunny 49 9.5 28 -2.2 44 44 SW 8 13 30.27 1025 10 16 N/A
1:15 pm 13:15 Sunny 49 9.6 30 -1.2 47 47 SW 8 13 30.27 1025 10 16 N/A
1:35 pm 13:35 Sunny 50 9.8 29 -1.4 46 46 WSW 9 15 30.26 1025 10 16 N/A
1:55 pm 13:55 Sunny 50 10.1 29 -1.8 44 44 SW 6 9 30.24 1024 10 16 N/A
2:15 pm 14:15 Sunny 50 9.9 28 -2.3 43 43 W 8 13 30.23 1024 10 16 N/A
2:35 pm 14:35 Sunny 50 10.1 26 -3.2 39 39 W 10 17 30.23 1024 10 16 N/A
2:55 pm 14:55 Sunny 51 10.3 25 -3.8 37 37 SW 7 11 30.22 1023 10 16 N/A
3:15 pm 15:15 Sunny 51 10.5 25 -3.8 37 37 WSW 8 13 30.22 1023 10 16 N/A
3:35 pm 15:35 Sunny 51 10.3 25 -4.1 36 36 WSW 8 13 30.21 1023 10 16 N/A
3:55 pm 15:55 Sunny 50 10.2 24 -4.5 36 36 WSW 9 15 30.21 1023 10 16 N/A
4:15 pm 16:15 Sunny 50 9.9 24 -4.3 37 37 WSW 6 9 30.21 1023 10 16 N/A
4:35 pm 16:35 Sunny 48 9 22 -5.7 35 35 W 7 11 30.22 1023 10 16 N/A
4:55 pm 16:55 Sunny 45 7.3 21 -6.2 38 38 WSW 6 9 30.24 1024 10 16 N/A
5:15 pm 17:15 Clear 44 6.6 21 -6 41 41 SW 5 7 30.24 1024 10 16 N/A
5:35 pm 17:35 Clear 43 6 23 -5.1 45 45 SW 5 7 30.25 1024 10 16 N/A
5:55 pm 17:55 Clear 40 4.6 23 -5 50 50 SW 5 7 30.26 1025 10 16 N/A
6:15 pm 18:15 Clear 39 4 23 -5 52 52 SW 6 9 30.26 1025 10 16 N/A
6:35 pm 18:35 Clear 38 3.6 23 -5.2 53 53 SW 6 9 30.26 1025 10 16 N/A
6:55 pm 18:55 Clear 38 3.3 22 -5.5 53 53 SW 6 9 30.26 1025 10 16 N/A
7:15 pm 19:15 Clear 37 2.7 22 -5.7 54 54 SW 6 9 30.27 1025 10 16 N/A
7:35 pm 19:35 Clear 37 2.6 22 -5.8 54 54 SW 7 11 30.27 1025 10 16 N/A
7:55 pm 19:55 Clear 37 2.5 22 -5.8 55 55 SW 7 11 30.27 1025 10 16 N/A
8:15 pm 20:15 Clear 37 3 22 -5.7 53 53 SW 7 11 30.28 1025 10 16 N/A
8:35 pm 20:35 Clear 36 2.1 21 -6 55 55 SW 8 13 30.28 1025 10 16 N/A
8:55 pm 20:55 Clear 35 1.7 21 -6.1 57 57 SW 7 11 30.28 1025 10 16 N/A
9:15 pm 21:15 Clear 35 1.8 21 -6.1 56 56 SW 7 11 30.28 1025 10 16 N/A
9:35 pm 21:35 Clear 36 2 21 -6.1 55 55 SW 7 11 30.29 1026 10 16 N/A
9:55 pm 21:55 Clear 36 2.2 21 -6.2 54 54 SW 9 15 30.27 1025 10 16 N/A
10:15 pm 22:15 Clear 34 1 21 -6.3 59 59 SW 6 9 30.29 1026 10 16 N/A
10:35 pm 22:35 Clear 34 1.2 20 -6.5 57 57 SW 8 13 30.28 1026 10 16 N/A
10:55 pm 22:55 Clear 35 1.6 21 -6.3 56 56 SW 10 17 30.28 1025 10 16 N/A
11:15 pm 23:15 Clear 35 1.7 20 -6.5 55 55 SW 9 15 30.27 1025 10 16 N/A
11:35 pm 23:35 Clear 34 1 21 -6 60 60 SW 9 15 30.28 1025 10 16 N/A
11:55 pm 23:55 Clear 36 2 22 -5.6 58 58 SW 9 15 30.28 1025 10 16 N/A

Powered by AerisWeather